TPC341 KPSP-KSAN

Flight info

Callsign TPC341
Flight time 0h 28m
Altitude 16000
Route HWRRD1 TRM V514 MZB
Aircraft B738/M-SDE2E3FGHIRWXY/LB1

Departure

Time 2026-04-23 23:40
Airport Palm Springs International Airport (KPSP)

Arrival

Time 2026-04-24 00:08
Airport San Diego International Airport (KSAN)
Time Latitude Longitude Altitude Speed Heading
2026-04-23 23:15 33.82590 -116.50799 461 ft 0 kts 220°
2026-04-23 23:36 33.82589 -116.50800 433 ft 1 kts 220°
2026-04-23 23:36 33.82566 -116.50821 430 ft 7 kts 205°
2026-04-23 23:36 33.82538 -116.50780 429 ft 8 kts 90°
2026-04-23 23:37 33.82542 -116.50707 429 ft 10 kts 99°
2026-04-23 23:37 33.82534 -116.50603 425 ft 15 kts 107°
2026-04-23 23:37 33.82457 -116.50515 419 ft 16 kts 144°
2026-04-23 23:37 33.82354 -116.50428 411 ft 19 kts 144°
2026-04-23 23:38 33.82244 -116.50327 413 ft 20 kts 143°
2026-04-23 23:38 33.82137 -116.50232 410 ft 19 kts 142°
2026-04-23 23:38 33.82045 -116.50150 407 ft 19 kts 143°
2026-04-23 23:38 33.81942 -116.50060 407 ft 18 kts 143°
2026-04-23 23:39 33.81849 -116.49976 409 ft 9 kts 140°
2026-04-23 23:39 33.81834 -116.49919 411 ft 7 kts 84°
2026-04-23 23:39 33.81844 -116.49862 411 ft 7 kts 73°
2026-04-23 23:39 33.81893 -116.49818 410 ft 13 kts 353°
2026-04-23 23:40 33.81965 -116.49872 404 ft 22 kts 328°
2026-04-23 23:40 33.82344 -116.50209 412 ft 120 kts 323°
2026-04-23 23:40 33.83207 -116.50979 775 ft 178 kts 324°
2026-04-23 23:40 33.84291 -116.51871 1824 ft 201 kts 326°
2026-04-23 23:41 33.85469 -116.52857 2839 ft 206 kts 323°
2026-04-23 23:41 33.86620 -116.53893 3737 ft 208 kts 323°
2026-04-23 23:41 33.87799 -116.54922 4598 ft 210 kts 325°
2026-04-23 23:41 33.89053 -116.55991 5003 ft 235 kts 324°
2026-04-23 23:42 33.90565 -116.56854 5617 ft 251 kts 351°
2026-04-23 23:42 33.92322 -116.56460 6296 ft 272 kts 28°
2026-04-23 23:42 33.93787 -116.54954 7191 ft 283 kts 45°
2026-04-23 23:42 33.95173 -116.53232 8178 ft 290 kts 47°
2026-04-23 23:43 33.96219 -116.51131 8738 ft 297 kts 74°
2026-04-23 23:43 33.96334 -116.48654 9473 ft 304 kts 101°
2026-04-23 23:43 33.95812 -116.46155 10349 ft 313 kts 106°
2026-04-23 23:43 33.95231 -116.43521 10744 ft 340 kts 108°
2026-04-23 23:44 33.94175 -116.40848 10962 ft 368 kts 127°
2026-04-23 23:44 33.92490 -116.38430 11160 ft 392 kts 139°
2026-04-23 23:44 33.90293 -116.36403 11424 ft 408 kts 151°
2026-04-23 23:44 33.87838 -116.34594 12017 ft 417 kts 153°
2026-04-23 23:45 33.85326 -116.32791 12670 ft 424 kts 153°
2026-04-23 23:45 33.82776 -116.30974 13355 ft 429 kts 153°
2026-04-23 23:45 33.80210 -116.29084 13999 ft 435 kts 152°
2026-04-23 23:45 33.77629 -116.27137 14615 ft 440 kts 152°
2026-04-23 23:46 33.75025 -116.25171 15232 ft 444 kts 152°
2026-04-23 23:46 33.72390 -116.23190 15829 ft 449 kts 152°
2026-04-23 23:46 33.69736 -116.21202 16033 ft 453 kts 152°
2026-04-23 23:46 33.67000 -116.19364 16023 ft 447 kts 163°
2026-04-23 23:47 33.64035 -116.18623 16047 ft 432 kts 184°
2026-04-23 23:47 33.61056 -116.18976 16043 ft 423 kts 198°
2026-04-23 23:47 33.58315 -116.20059 16029 ft 414 kts 212°
2026-04-23 23:47 33.55930 -116.21889 16030 ft 396 kts 221°
2026-04-23 23:48 33.53792 -116.23812 16023 ft 373 kts 222°
2026-04-23 23:48 33.51778 -116.25629 16013 ft 351 kts 222°
2026-04-23 23:48 33.49883 -116.27341 16043 ft 332 kts 223°
2026-04-23 23:48 33.48078 -116.28957 16031 ft 316 kts 223°
2026-04-23 23:49 33.44640 -116.32074 16030 ft 308 kts 223°
2026-04-23 23:49 33.42914 -116.33530 16032 ft 299 kts 223°
2026-04-23 23:49 33.41241 -116.34987 16032 ft 296 kts 223°
2026-04-23 23:50 33.39577 -116.36447 16046 ft 296 kts 223°
2026-04-23 23:50 33.37920 -116.37904 16040 ft 296 kts 223°
2026-04-23 23:50 33.36277 -116.39351 16070 ft 295 kts 223°
2026-04-23 23:50 33.34616 -116.40807 16049 ft 297 kts 223°
2026-04-23 23:51 33.32962 -116.42298 16077 ft 299 kts 223°
2026-04-23 23:51 33.31295 -116.43720 16069 ft 297 kts 222°
2026-04-23 23:51 33.29599 -116.45163 16051 ft 297 kts 223°
2026-04-23 23:51 33.27907 -116.46583 16050 ft 300 kts 221°
2026-04-23 23:52 33.26219 -116.48054 16041 ft 300 kts 223°
2026-04-23 23:52 33.24546 -116.49525 15989 ft 299 kts 223°
2026-04-23 23:52 33.22816 -116.50998 15518 ft 307 kts 221°
2026-04-23 23:52 33.21060 -116.52505 14986 ft 311 kts 221°
2026-04-23 23:53 33.19308 -116.54024 14397 ft 310 kts 221°
2026-04-23 23:53 33.17601 -116.55531 13831 ft 306 kts 224°
2026-04-23 23:53 33.15934 -116.57084 13184 ft 306 kts 217°
2026-04-23 23:53 33.13957 -116.58039 12549 ft 306 kts 200°
2026-04-23 23:54 33.11937 -116.58843 11851 ft 304 kts 201°
2026-04-23 23:54 33.09835 -116.59255 11268 ft 308 kts 188°
2026-04-23 23:54 33.07744 -116.59410 11043 ft 293 kts 188°
2026-04-23 23:54 33.05760 -116.59560 10900 ft 278 kts 188°
2026-04-23 23:55 33.03883 -116.59714 10768 ft 264 kts 189°
2026-04-23 23:55 33.02122 -116.59872 10649 ft 252 kts 189°
2026-04-23 23:55 33.00391 -116.60037 10607 ft 248 kts 190°
2026-04-23 23:55 32.98659 -116.60210 10492 ft 249 kts 190°
2026-04-23 23:56 32.96943 -116.60384 10401 ft 248 kts 190°
2026-04-23 23:56 32.95227 -116.60559 10276 ft 247 kts 190°
2026-04-23 23:56 32.93512 -116.60734 10175 ft 247 kts 190°
2026-04-23 23:56 32.91822 -116.60909 10081 ft 246 kts 190°
2026-04-23 23:57 32.90116 -116.61085 9908 ft 248 kts 190°
2026-04-23 23:57 32.88374 -116.61266 9628 ft 252 kts 189°
2026-04-23 23:57 32.86629 -116.61434 9348 ft 251 kts 189°
2026-04-23 23:57 32.84903 -116.61608 9094 ft 246 kts 189°
2026-04-23 23:58 32.83213 -116.61781 8846 ft 241 kts 189°
2026-04-23 23:58 32.81549 -116.61957 8582 ft 240 kts 189°
2026-04-23 23:58 32.79889 -116.62126 8336 ft 239 kts 190°
2026-04-23 23:58 32.78253 -116.62424 8071 ft 235 kts 204°
2026-04-23 23:59 32.77019 -116.63572 7823 ft 225 kts 238°
2026-04-23 23:59 32.76328 -116.65208 7576 ft 222 kts 250°
2026-04-23 23:59 32.75762 -116.66923 7320 ft 224 kts 249°
2026-04-23 23:59 32.75202 -116.68644 7057 ft 224 kts 251°
2026-04-24 00:00 32.74653 -116.70378 6821 ft 224 kts 250°
2026-04-24 00:00 32.74081 -116.72105 6571 ft 225 kts 250°
2026-04-24 00:00 32.73491 -116.73841 6279 ft 228 kts 249°
2026-04-24 00:00 32.72890 -116.75587 6010 ft 229 kts 249°
2026-04-24 00:01 32.72305 -116.77347 5760 ft 229 kts 250°
2026-04-24 00:01 32.71742 -116.79111 5501 ft 225 kts 249°
2026-04-24 00:01 32.71187 -116.80807 5394 ft 218 kts 249°
2026-04-24 00:01 32.70666 -116.82483 5279 ft 216 kts 250°
2026-04-24 00:02 32.70087 -116.84146 5212 ft 222 kts 248°
2026-04-24 00:02 32.69509 -116.85857 5123 ft 225 kts 250°
2026-04-24 00:02 32.68958 -116.87556 5005 ft 222 kts 250°
2026-04-24 00:02 32.68437 -116.89297 4770 ft 225 kts 251°
2026-04-24 00:03 32.67942 -116.91061 4533 ft 226 kts 250°
2026-04-24 00:03 32.67404 -116.92816 4292 ft 226 kts 252°
2026-04-24 00:03 32.67319 -116.94644 4024 ft 224 kts 283°
2026-04-24 00:03 32.67767 -116.96369 3804 ft 214 kts 287°
2026-04-24 00:04 32.68204 -116.98015 3557 ft 204 kts 287°
2026-04-24 00:04 32.68604 -116.99592 3369 ft 196 kts 284°
2026-04-24 00:04 32.69003 -117.01088 3186 ft 183 kts 285°
2026-04-24 00:04 32.69361 -117.02495 2952 ft 173 kts 284°
2026-04-24 00:05 32.69688 -117.03825 2714 ft 163 kts 285°
2026-04-24 00:05 32.69994 -117.05076 2534 ft 152 kts 285°
2026-04-24 00:05 32.70307 -117.06269 2381 ft 148 kts 283°
2026-04-24 00:05 32.70593 -117.07467 2152 ft 151 kts 284°
2026-04-24 00:06 32.70873 -117.08600 1967 ft 137 kts 282°
2026-04-24 00:06 32.71111 -117.09631 1747 ft 124 kts 282°
2026-04-24 00:06 32.71323 -117.10598 1542 ft 119 kts 282°
2026-04-24 00:06 32.71589 -117.11535 1367 ft 121 kts 283°
2026-04-24 00:07 32.71802 -117.12511 1304 ft 124 kts 283°
2026-04-24 00:07 32.72039 -117.13507 1171 ft 125 kts 285°
2026-04-24 00:07 32.72281 -117.14506 990 ft 128 kts 285°
2026-04-24 00:07 32.72529 -117.15541 756 ft 131 kts 284°
2026-04-24 00:08 32.72767 -117.16542 433 ft 121 kts 284°
2026-04-24 00:08 32.72993 -117.17459 180 ft 111 kts 284°
2026-04-24 00:08 32.73198 -117.18309 28 ft 100 kts 284°
2026-04-24 00:08 32.73346 -117.18923 22 ft 47 kts 287°
2026-04-24 00:09 32.73427 -117.19089 21 ft 19 kts
2026-04-24 00:09 32.73479 -117.19038 22 ft 6 kts 72°
2026-04-24 00:09 32.73480 -117.19032 21 ft 0 kts 79°
2026-04-24 00:09 32.73478 -117.18993 21 ft 14 kts 99°
2026-04-24 00:10 32.73434 -117.18833 21 ft 22 kts 102°
2026-04-24 00:10 32.73395 -117.18655 20 ft 22 kts 109°
2026-04-24 00:10 32.73355 -117.18482 20 ft 21 kts 104°
2026-04-24 00:10 32.73314 -117.18314 21 ft 21 kts 105°
2026-04-24 00:11 32.73273 -117.18151 22 ft 20 kts 106°
2026-04-24 00:11 32.73256 -117.18002 19 ft 12 kts 65°
2026-04-24 00:11 32.73319 -117.17967 19 ft 10 kts 14°
2026-04-24 00:11 32.73360 -117.17952 19 ft 5 kts 27°
2026-04-24 00:12 32.73382 -117.17922 21 ft 5 kts 47°
2026-04-24 00:12 32.73407 -117.17897 22 ft 5 kts 13°
2026-04-24 00:12 32.73431 -117.17920 21 ft 5 kts 287°
2026-04-24 00:12 32.73422 -117.17933 20 ft 0 kts 199°
2026-04-24 00:15 32.73423 -117.17933 20 ft 0 kts 199°